Home > Weather > Alfeld (Leine) > Past weeks

Flag for Germany Past Weather in Alfeld (Leine), Lower Saxony, Germany — Yesterday and Last 2 Weeks

Now
68 °F

Clear.


Feels Like: 68 °F
Forecast: 64 / 91 °F
Wind: 3 mph from Northeast

Location: Hannover

Current Time: Aug 26, 2016 at 12:24:01 AM

Latest Report: Aug 25, 2016 at 11:50 PM


Visibility: 10 mi

Pressure: 29.98 "Hg

Humidity: 56%

Dew Point: 52 °F

Location of Alfeld (Leine)Location

Past Weather in Alfeld (Leine) — Graph

°F

Alfeld (Leine) Temperature Yesterday

Maximum temperature yesterday: 91 °F (at 4:50 PM)
Minimum temperature yesterday: 61 °F (at 6:20 AM)
Average temperature yesterday: 77 °F

High & Low Weather Summary for the Past Weeks

 TemperatureHumidityPressure
High91 °F (Aug 25, 4:50 PM)100% (Aug 12, 1:50 AM)30.33 "Hg (Aug 12, 1:50 AM)
Low45 °F (Aug 11, 6:20 AM)20% (Aug 25, 6:50 PM)29.80 "Hg (Aug 18, 3:20 PM)
Average64 °F74%30.09 "Hg
* Reported Aug 10 11:20 PM — Aug 25 11:20 PM, Alfeld (Leine), Weather by CustomWeather, © 2016

Note: Actual official high and low records may vary slightly from our data, if they occured in-between our weather recording intervals... More about our weather records

Advertising

Alfeld (Leine) Weather History for the Previous 24 Hours

Scroll right to see more
 ConditionsComfort  
Time TempWeatherWind HumidityBarometerVisibility
11:20 PM
Thu, Aug 25
72 °FClear.5 mph50%29.98 "Hg10 mi
10:50 PM72 °FPassing clouds.5 mph47%29.98 "HgN/A
10:20 PM75 °FClear.5 mph41%29.98 "Hg10 mi
9:50 PM75 °FPassing clouds.3 mph44%29.98 "HgN/A
9:20 PM75 °FPassing clouds.5 mph44%29.98 "HgN/A
8:50 PM84 °FSunny.9 mph29%29.98 "Hg10 mi
8:20 PM86 °FSunny.8 mph27%29.98 "Hg10 mi
7:50 PM88 °FSunny.9 mph25%29.98 "Hg10 mi
7:20 PM90 °FSunny.12 mph22%29.98 "Hg10 mi
6:50 PM91 °FSunny.14 mph20%29.98 "Hg10 mi
6:20 PM91 °FSunny.14 mph23%29.98 "Hg10 mi
5:50 PM91 °FSunny.14 mph23%30.01 "Hg10 mi
5:20 PM91 °FPassing clouds.13 mph23%30.01 "HgN/A
4:50 PM91 °FPassing clouds.15 mph23%30.01 "HgN/A
4:20 PM90 °FPassing clouds.10 mph29%30.04 "HgN/A
3:50 PM90 °FPassing clouds.12 mph31%30.04 "HgN/A
3:20 PM88 °FPassing clouds.12 mph33%30.04 "HgN/A
2:50 PM88 °FPassing clouds.12 mph33%30.07 "HgN/A
2:20 PM88 °FPassing clouds.14 mph31%30.07 "HgN/A
1:50 PM88 °FSunny.17 mph29%30.07 "Hg10 mi
1:20 PM86 °FPassing clouds.13 mph33%30.07 "HgN/A
12:50 PM84 °FSunny.15 mph37%30.09 "Hg10 mi
12:20 PM84 °FPassing clouds.15 mph40%30.09 "HgN/A
11:50 AM84 °FSunny.10 mph43%30.09 "Hg10 mi
11:20 AM82 °FPassing clouds.8 mph45%30.09 "HgN/A
10:50 AM81 °FPassing clouds.8 mph48%30.12 "HgN/A
10:20 AM79 °FPassing clouds.8 mph51%30.12 "HgN/A
9:50 AM77 °FSunny.9 mph54%30.12 "Hg10 mi
9:20 AM75 °FPassing clouds.7 mph57%30.12 "HgN/A
8:50 AM72 °FPassing clouds.6 mph61%30.12 "HgN/A
8:20 AM68 °FSunny.5 mph69%30.12 "Hg10 mi
7:50 AM66 °FSunny.5 mph73%30.12 "Hg10 mi
7:20 AM63 °FClear.5 mph83%30.12 "Hg10 mi
6:50 AM63 °FPassing clouds.5 mph77%30.12 "HgN/A
6:20 AM61 °FClear.7 mph83%30.12 "Hg10 mi
5:50 AM63 °FClear.5 mph77%30.12 "Hg10 mi
5:20 AM63 °FClear.5 mph77%30.12 "Hg10 mi
4:50 AM64 °FClear.6 mph73%30.12 "Hg10 mi
4:20 AM64 °FClear.5 mph73%30.12 "Hg10 mi
3:50 AM66 °FClear.5 mph73%30.12 "Hg10 mi
3:20 AM68 °FClear.6 mph69%30.12 "Hg10 mi
2:50 AM70 °FPassing clouds.6 mph64%30.12 "HgN/A
2:20 AM70 °FClear.6 mph64%30.12 "Hg10 mi
1:50 AM68 °FClear.7 mph69%30.15 "Hg10 mi
1:20 AM70 °FClear.6 mph64%30.15 "Hg10 mi
12:50 AM68 °FClear.6 mph69%30.15 "Hg10 mi
12:20 AM73 °FPassing clouds.5 mph57%30.15 "HgN/A
Weather by CustomWeather, © 2016

See weather overviewHow to use our weather pages